| time (UTC) | temp C | wind direction | speed KPH | gust KPH | rain 1hr cm | rain 24hr cm | rain mn cm | humidity % | barometer mb |
| 20260906130453 | 21 | 59 | 0.0 | 3.2 | 0.00 | 0.00 | 0.00 | 87 | 1018.9 |
| 20260906125454 | 21 | 63 | 1.6 | 6.4 | 0.00 | 0.00 | 0.00 | 88 | 1018.7 |
| 20260906124953 | 20 | 50 | 1.6 | 6.4 | 0.00 | 0.00 | 0.00 | 88 | 1018.7 |
| 20260906124452 | 20 | 69 | 0.0 | 3.2 | 0.00 | 0.00 | 0.00 | 88 | 1018.7 |
| 20260906123955 | 20 | 34 | 0.0 | 1.6 | 0.00 | 0.00 | 0.00 | 88 | 1018.8 |
| 20260906123453 | 20 | 34 | 0.0 | 3.2 | 0.00 | 0.00 | 0.00 | 89 | 1018.8 |
| 20260906122955 | 20 | 34 | 0.0 | 3.2 | 0.00 | 0.00 | 0.00 | 88 | 1018.8 |
| 20260906122452 | 20 | 34 | 0.0 | 1.6 | 0.00 | 0.00 | 0.00 | 88 | 1018.4 |
| 20260906121955 | 20 | 34 | 0.0 | 1.6 | 0.00 | 0.00 | 0.00 | 88 | 1018.4 |
| 20260906120955 | 20 | 34 | 0.0 | 1.6 | 0.00 | 0.00 | 0.00 | 88 | 1018.3 |
| 20260906120452 | 20 | 34 | 0.0 | 0.0 | 0.00 | 0.00 | 0.00 | 88 | 1018.3 |
| 20260906115952 | 20 | 34 | 0.0 | 0.0 | 0.00 | 0.00 | 0.00 | 88 | 1018.3 |
| 20260906115452 | 20 | 34 | 0.0 | 0.0 | 0.00 | 0.00 | 0.00 | 88 | 1017.9 |
| 20260906114953 | 20 | 34 | 0.0 | 0.0 | 0.00 | 0.00 | 0.00 | 87 | 1017.9 |
| 20260906114453 | 20 | 34 | 0.0 | 1.6 | 0.00 | 0.00 | 0.00 | 87 | 1017.9 |
| 20260906113953 | 20 | 34 | 0.0 | 1.6 | 0.00 | 0.00 | 0.00 | 88 | 1017.8 |
| 20260906112953 | 20 | 34 | 0.0 | 1.6 | 0.00 | 0.00 | 0.00 | 87 | 1017.8 |
| 20260906112454 | 20 | 34 | 0.0 | 3.2 | 0.00 | 0.00 | 0.00 | 87 | 1017.5 |
| 20260906111452 | 20 | 34 | 0.0 | 1.6 | 0.00 | 0.00 | 0.00 | 87 | 1017.5 |
| 20260906110954 | 20 | 34 | 0.0 | 1.6 | 0.00 | 0.00 | 0.00 | 87 | 1017.6 |
| 20260906110452 | 20 | 34 | 0.0 | 1.6 | 0.00 | 0.00 | 0.00 | 87 | 1017.6 |
| 20260906105956 | 20 | 34 | 0.0 | 1.6 | 0.00 | 0.00 | 0.00 | 87 | 1017.6 |
| 20260906105453 | 20 | 34 | 0.0 | 6.4 | 0.00 | 0.00 | 0.00 | 87 | 1017.4 |
| 20260906104453 | 20 | 34 | 0.0 | 4.8 | 0.00 | 0.00 | 0.00 | 86 | 1017.4 |
| 20260906103955 | 21 | 34 | 0.0 | 1.6 | 0.00 | 0.00 | 0.00 | 86 | 1017.2 |
| 20260906103452 | 21 | 34 | 0.0 | 1.6 | 0.00 | 0.00 | 0.00 | 86 | 1017.2 |
| 20260906102955 | 21 | 34 | 0.0 | 3.2 | 0.00 | 0.00 | 0.00 | 86 | 1017.2 |
| 20260906102452 | 21 | 34 | 0.0 | 4.8 | 0.00 | 0.00 | 0.00 | 86 | 1017.3 |
| 20260906101454 | 21 | 34 | 0.0 | 3.2 | 0.00 | 0.00 | 0.00 | 86 | 1017.3 |
| 20260906100953 | 21 | 34 | 0.0 | 3.2 | 0.00 | 0.00 | 0.00 | 86 | 1017.0 |
| 20260906095954 | 21 | 34 | 0.0 | 3.2 | 0.00 | 0.00 | 0.00 | 86 | 1017.0 |
| 20260906095453 | 21 | 34 | 0.0 | 3.2 | 0.00 | 0.00 | 0.00 | 86 | 1016.9 |
| 20260906094953 | 21 | 34 | 0.0 | 3.2 | 0.00 | 0.00 | 0.00 | 86 | 1016.9 |
| 20260906093953 | 21 | 34 | 0.0 | 4.8 | 0.00 | 0.00 | 0.00 | 86 | 1016.9 |
| 20260906093453 | 21 | 34 | 0.0 | 4.8 | 0.00 | 0.00 | 0.00 | 86 | 1016.9 |
| 20260906092452 | 21 | 34 | 0.0 | 1.6 | 0.00 | 0.00 | 0.00 | 86 | 1016.8 |
| 20260906091955 | 21 | 34 | 0.0 | 1.6 | 0.00 | 0.00 | 0.00 | 86 | 1016.8 |
| 20260906091452 | 21 | 34 | 0.0 | 1.6 | 0.00 | 0.00 | 0.00 | 85 | 1016.8 |
| 20260906085954 | 21 | 34 | 0.0 | 1.6 | 0.00 | 0.00 | 0.00 | 85 | 1016.8 |
| 20260906085452 | 21 | 34 | 0.0 | 0.0 | 0.00 | 0.00 | 0.00 | 85 | 1016.8 |
| 20260906084953 | 21 | 34 | 0.0 | 0.0 | 0.00 | 0.00 | 0.00 | 84 | 1016.8 |
| 20260906084452 | 21 | 34 | 0.0 | 0.0 | 0.00 | 0.00 | 0.00 | 84 | 1016.8 |
| 20260906083954 | 21 | 34 | 0.0 | 0.0 | 0.00 | 0.00 | 0.00 | 84 | 1016.8 |
| 20260906083452 | 21 | 34 | 0.0 | 0.0 | 0.00 | 0.00 | 0.00 | 84 | 1016.8 |
| 20260906082953 | 21 | 34 | 0.0 | 0.0 | 0.00 | 0.00 | 0.00 | 84 | 1016.8 |
| 20260906082453 | 21 | 34 | 0.0 | 0.0 | 0.00 | 0.00 | 0.00 | 84 | 1016.8 |
| 20260906081953 | 21 | 34 | 0.0 | 0.0 | 0.00 | 0.00 | 0.00 | 84 | 1016.8 |
| 20260906081453 | 21 | 34 | 0.0 | 0.0 | 0.00 | 0.00 | 0.00 | 84 | 1016.8 |
| 20260906080954 | 21 | 34 | 0.0 | 0.0 | 0.00 | 0.00 | 0.00 | 84 | 1017.0 |
| 20260906080453 | 21 | 34 | 0.0 | 0.0 | 0.00 | 0.00 | 0.00 | 84 | 1017.0 |
| 20260906075453 | 21 | 34 | 0.0 | 0.0 | 0.00 | 0.00 | 0.00 | 84 | 1016.9 |
| 20260906074954 | 21 | 34 | 0.0 | 0.0 | 0.00 | 0.00 | 0.00 | 84 | 1016.9 |
| 20260906074453 | 21 | 34 | 0.0 | 0.0 | 0.00 | 0.00 | 0.00 | 84 | 1016.9 |
| 20260906073953 | 22 | 34 | 0.0 | 1.6 | 0.00 | 0.00 | 0.00 | 84 | 1016.9 |
| 20260906072953 | 22 | 34 | 0.0 | 0.0 | 0.00 | 0.00 | 0.00 | 84 | 1016.9 |
| 20260906072453 | 22 | 34 | 0.0 | 0.0 | 0.00 | 0.00 | 0.00 | 84 | 1017.1 |
| 20260906071953 | 22 | 34 | 0.0 | 0.0 | 0.00 | 0.00 | 0.00 | 84 | 1017.1 |
| 20260906070954 | 22 | 34 | 0.0 | 0.0 | 0.00 | 0.00 | 0.00 | 84 | 1017.1 |
| 20260906070454 | 22 | 34 | 0.0 | 0.0 | 0.00 | 0.00 | 0.00 | 84 | 1017.1 |
| 20260906065952 | 22 | 34 | 0.0 | 0.0 | 0.00 | 0.00 | 0.00 | 84 | 1017.1 |
| 20260906064953 | 22 | 23 | 0.0 | 1.6 | 0.00 | 0.00 | 0.00 | 83 | 1017.2 |
| 20260906064452 | 22 | 23 | 0.0 | 1.6 | 0.00 | 0.00 | 0.00 | 83 | 1017.2 |
| 20260906063954 | 22 | 23 | 0.0 | 1.6 | 0.00 | 0.00 | 0.00 | 83 | 1016.9 |
| 20260906063451 | 22 | 23 | 0.0 | 0.0 | 0.00 | 0.00 | 0.00 | 83 | 1016.9 |
| 20260906062951 | 22 | 23 | 0.0 | 0.0 | 0.00 | 0.00 | 0.00 | 83 | 1016.9 |
| 20260906062452 | 22 | 23 | 0.0 | 1.6 | 0.00 | 0.00 | 0.00 | 83 | 1016.9 |
| 20260906061452 | 22 | 23 | 0.0 | 3.2 | 0.00 | 0.00 | 0.00 | 83 | 1016.9 |
| 20260906060952 | 22 | 64 | 0.0 | 3.2 | 0.00 | 0.00 | 0.00 | 83 | 1017.0 |
| 20260906060451 | 22 | 53 | 0.0 | 1.6 | 0.00 | 0.00 | 0.00 | 82 | 1017.0 |
| 20260906055956 | 22 | 51 | 0.0 | 1.6 | 0.00 | 0.00 | 0.00 | 82 | 1017.0 |
| 20260906055455 | 22 | 59 | 0.0 | 1.6 | 0.00 | 0.00 | 0.00 | 82 | 1017.0 |
| 20260906054958 | 22 | 59 | 0.0 | 3.2 | 0.00 | 0.00 | 0.00 | 82 | 1017.0 |
| 20260906054457 | 22 | 61 | 0.0 | 4.8 | 0.00 | 0.00 | 0.00 | 82 | 1017.0 |
| 20260906053455 | 22 | 44 | 0.0 | 1.6 | 0.00 | 0.00 | 0.00 | 82 | 1016.9 |
| 20260906052957 | 22 | 61 | 0.0 | 6.4 | 0.00 | 0.00 | 0.00 | 82 | 1016.9 |
| 20260906052458 | 22 | 61 | 0.0 | 6.4 | 0.00 | 0.00 | 0.00 | 82 | 1016.8 |
| 20260906051956 | 22 | 42 | 0.0 | 3.2 | 0.00 | 0.00 | 0.00 | 81 | 1016.8 |
| 20260906051455 | 22 | 33 | 0.0 | 3.2 | 0.00 | 0.00 | 0.00 | 81 | 1016.8 |
| 20260906050955 | 22 | 30 | 0.0 | 3.2 | 0.00 | 0.00 | 0.00 | 81 | 1016.8 |
| 20260906050456 | 22 | 65 | 0.0 | 0.0 | 0.00 | 0.00 | 0.00 | 81 | 1016.8 |
| 20260906050006 | 22 | 74 | 0.0 | 1.6 | 0.00 | 0.00 | 0.00 | 81 | 1016.8 |
| 20260906045457 | 22 | 74 | 0.0 | 1.6 | 0.00 | 0.00 | 0.00 | 81 | 1016.8 |
| 20260906044958 | 22 | 74 | 0.0 | 4.8 | 0.00 | 0.00 | 0.00 | 81 | 1016.8 |
| 20260906044456 | 22 | 78 | 0.0 | 4.8 | 0.00 | 0.00 | 0.00 | 81 | 1016.8 |
| 20260906043458 | 22 | 5 | 0.0 | 3.2 | 0.00 | 0.00 | 0.00 | 81 | 1016.3 |
| 20260906042458 | 22 | 43 | 0.0 | 4.8 | 0.00 | 0.00 | 0.00 | 81 | 1016.2 |
| 20260906042000 | 22 | 56 | 0.0 | 3.2 | 0.00 | 0.00 | 0.00 | 81 | 1016.2 |
| 20260906041458 | 22 | 48 | 0.0 | 3.2 | 0.00 | 0.00 | 0.00 | 81 | 1016.2 |
| 20260906040958 | 22 | 54 | 0.0 | 3.2 | 0.00 | 0.00 | 0.00 | 81 | 1016.0 |
| 20260906040456 | 22 | 63 | 0.0 | 3.2 | 0.00 | 0.00 | 0.00 | 81 | 1016.0 |
| 20260906035959 | 22 | 68 | 0.0 | 3.2 | 0.00 | 0.00 | 0.00 | 81 | 1016.0 |
| 20260906034955 | 22 | 61 | 0.0 | 6.4 | 0.00 | 0.00 | 0.00 | 81 | 1015.9 |
| 20260906033956 | 22 | 9 | 0.0 | 6.4 | 0.00 | 0.00 | 0.00 | 81 | 1015.8 |
| 20260906032957 | 22 | 56 | 0.0 | 1.6 | 0.00 | 0.00 | 0.00 | 80 | 1015.8 |
| 20260906032457 | 22 | 69 | 0.0 | 4.8 | 0.00 | 0.00 | 0.00 | 80 | 1015.9 |
| 20260906032000 | 22 | 50 | 0.0 | 4.8 | 0.00 | 0.00 | 0.00 | 80 | 1015.9 |
| 20260906030955 | 22 | 37 | 0.0 | 4.8 | 0.00 | 0.00 | 0.00 | 80 | 1015.8 |
| 20260906030454 | 22 | 52 | 0.0 | 4.8 | 0.00 | 0.00 | 0.00 | 80 | 1015.8 |
| 20260906025959 | 22 | 58 | 0.0 | 3.2 | 0.00 | 0.00 | 0.00 | 79 | 1015.8 |
| 20260906025457 | 22 | 86 | 0.0 | 3.2 | 0.00 | 0.00 | 0.00 | 79 | 1015.9 |
| 20260906024957 | 22 | 69 | 0.0 | 6.4 | 0.00 | 0.00 | 0.00 | 79 | 1015.9 |
| 20260906023956 | 22 | 292 | 0.0 | 4.8 | 0.00 | 0.00 | 0.00 | 79 | 1015.8 |
| 20260906023457 | 23 | 69 | 0.0 | 6.4 | 0.00 | 0.00 | 0.00 | 79 | 1015.8 |
| 20260906022957 | 22 | 53 | 0.0 | 6.4 | 0.00 | 0.00 | 0.00 | 79 | 1015.8 |
| 20260906021957 | 22 | 28 | 0.0 | 4.8 | 0.00 | 0.00 | 0.00 | 79 | 1015.8 |
| 20260906021457 | 22 | 63 | 0.0 | 4.8 | 0.00 | 0.00 | 0.00 | 79 | 1015.8 |
| 20260906020958 | 23 | 63 | 0.0 | 6.4 | 0.00 | 0.00 | 0.00 | 79 | 1015.8 |
| 20260906020456 | 23 | 42 | 1.6 | 12.9 | 0.00 | 0.00 | 0.00 | 79 | 1015.8 |
| 20260906015958 | 23 | 36 | 0.0 | 12.9 | 0.00 | 0.00 | 0.00 | 79 | 1015.8 |
| 20260906015457 | 23 | 50 | 0.0 | 4.8 | 0.00 | 0.00 | 0.00 | 79 | 1016.0 |
| 20260906014957 | 23 | 28 | 1.6 | 8.0 | 0.00 | 0.00 | 0.00 | 79 | 1016.0 |
| 20260906014457 | 23 | 41 | 1.6 | 8.0 | 0.00 | 0.00 | 0.00 | 79 | 1016.0 |
| 20260906013958 | 23 | 74 | 0.0 | 6.4 | 0.00 | 0.00 | 0.00 | 79 | 1016.0 |
| 20260906013456 | 23 | 42 | 0.0 | 6.4 | 0.00 | 0.00 | 0.00 | 79 | 1016.0 |
| 20260906012956 | 23 | 32 | 1.6 | 6.4 | 0.00 | 0.00 | 0.00 | 79 | 1016.0 |
| 20260906012456 | 23 | 70 | 0.0 | 6.4 | 0.00 | 0.00 | 0.00 | 79 | 1016.1 |
| 20260906011958 | 23 | 48 | 0.0 | 4.8 | 0.00 | 0.00 | 0.00 | 80 | 1016.1 |
| 20260906011457 | 23 | 20 | 1.6 | 8.0 | 0.00 | 0.00 | 0.00 | 80 | 1016.1 |
| 20260906010957 | 23 | 16 | 1.6 | 8.0 | 0.00 | 0.00 | 0.00 | 80 | 1015.9 |
| 20260906010456 | 23 | 54 | 0.0 | 8.0 | 0.00 | 0.00 | 0.00 | 79 | 1015.9 |
| 20260906005456 | 23 | 24 | 1.6 | 12.9 | 0.00 | 0.00 | 0.00 | 79 | 1015.8 |
| 20260906004457 | 23 | 5 | 1.6 | 8.0 | 0.00 | 0.00 | 0.00 | 79 | 1015.8 |
| 20260906003955 | 23 | 25 | 1.6 | 8.0 | 0.00 | 0.00 | 0.00 | 78 | 1015.5 |
| 20260906003455 | 23 | 32 | 3.2 | 8.0 | 0.00 | 0.00 | 0.00 | 78 | 1015.5 |
| 20260906003000 | 23 | 48 | 3.2 | 9.7 | 0.00 | 0.00 | 0.00 | 78 | 1015.5 |
| 20260906002457 | 23 | 63 | 3.2 | 9.7 | 0.00 | 0.00 | 0.00 | 78 | 1015.3 |
| 20260906001955 | 23 | 74 | 1.6 | 9.7 | 0.00 | 0.00 | 0.00 | 78 | 1015.3 |
| 20260906000957 | 23 | 64 | 3.2 | 9.7 | 0.00 | 0.00 | 0.00 | 78 | 1015.3 |
| 20260905235958 | 23 | 53 | 3.2 | 9.7 | 0.00 | 0.00 | 0.00 | 78 | 1015.3 |
| 20260905235455 | 23 | 42 | 3.2 | 9.7 | 0.00 | 0.00 | 0.00 | 78 | 1015.3 |
| 20260905234959 | 23 | 57 | 3.2 | 11.3 | 0.00 | 0.00 | 0.00 | 76 | 1015.3 |
| 20260905234456 | 24 | 30 | 3.2 | 12.9 | 0.00 | 0.00 | 0.00 | 76 | 1015.3 |
| 20260905233958 | 24 | 34 | 3.2 | 12.9 | 0.00 | 0.00 | 0.00 | 76 | 1015.3 |
| 20260905233456 | 24 | 64 | 1.6 | 8.0 | 0.00 | 0.00 | 0.00 | 76 | 1015.3 |
| 20260905232956 | 24 | 62 | 3.2 | 9.7 | 0.00 | 0.00 | 0.00 | 76 | 1015.3 |
| 20260905232455 | 25 | 63 | 3.2 | 11.3 | 0.00 | 0.00 | 0.00 | 75 | 1015.0 |
| 20260905231957 | 25 | 5 | 1.6 | 11.3 | 0.00 | 0.00 | 0.00 | 75 | 1015.0 |
| 20260905231455 | 25 | 40 | 1.6 | 11.3 | 0.00 | 0.00 | 0.00 | 75 | 1015.0 |
| 20260905230957 | 25 | 64 | 3.2 | 11.3 | 0.00 | 0.00 | 0.00 | 74 | 1014.7 |
| 20260905230455 | 25 | 317 | 1.6 | 9.7 | 0.00 | 0.00 | 0.00 | 74 | 1014.7 |
| 20260905230000 | 26 | 67 | 1.6 | 4.8 | 0.00 | 0.00 | 0.00 | 74 | 1014.7 |
| 20260905225456 | 26 | 41 | 1.6 | 8.0 | 0.00 | 0.00 | 0.00 | 74 | 1014.7 |
| 20260905224956 | 26 | 41 | 3.2 | 8.0 | 0.00 | 0.00 | 0.00 | 73 | 1014.7 |
| 20260905224456 | 26 | 11 | 1.6 | 8.0 | 0.00 | 0.00 | 0.00 | 73 | 1014.7 |
| 20260905223959 | 26 | 70 | 1.6 | 6.4 | 0.00 | 0.00 | 0.00 | 72 | 1014.6 |
| 20260905223456 | 26 | 53 | 1.6 | 14.5 | 0.00 | 0.00 | 0.00 | 72 | 1014.6 |
| 20260905222956 | 26 | 355 | 1.6 | 14.5 | 0.00 | 0.00 | 0.00 | 72 | 1014.6 |
| 20260905222456 | 26 | 67 | 1.6 | 6.4 | 0.00 | 0.00 | 0.00 | 72 | 1014.4 |
| 20260905221957 | 26 | 49 | 1.6 | 8.0 | 0.00 | 0.00 | 0.00 | 72 | 1014.4 |
| 20260905221456 | 26 | 43 | 1.6 | 8.0 | 0.00 | 0.00 | 0.00 | 71 | 1014.4 |
| 20260905220957 | 26 | 16 | 1.6 | 8.0 | 0.00 | 0.00 | 0.00 | 72 | 1014.7 |
| 20260905220457 | 26 | 58 | 1.6 | 8.0 | 0.00 | 0.00 | 0.00 | 72 | 1014.7 |
| 20260905215955 | 26 | 22 | 1.6 | 6.4 | 0.00 | 0.00 | 0.00 | 71 | 1014.7 |
| 20260905214454 | 27 | 53 | 1.6 | 8.0 | 0.00 | 0.00 | 0.00 | 71 | 1014.3 |
| 20260905213956 | 27 | 273 | 0.0 | 6.4 | 0.00 | 0.00 | 0.00 | 71 | 1014.4 |
| 20260905213456 | 27 | 53 | 1.6 | 6.4 | 0.00 | 0.00 | 0.00 | 71 | 1014.4 |
| 20260905212954 | 26 | 288 | 1.6 | 6.4 | 0.00 | 0.00 | 0.00 | 72 | 1014.4 |
| 20260905212455 | 26 | 57 | 1.6 | 6.4 | 0.00 | 0.00 | 0.00 | 71 | 1014.4 |
| 20260905211955 | 26 | 18 | 0.0 | 6.4 | 0.00 | 0.00 | 0.00 | 71 | 1014.4 |
| 20260905211455 | 26 | 59 | 1.6 | 8.0 | 0.00 | 0.00 | 0.00 | 72 | 1014.4 |
| 20260905210956 | 26 | 24 | 1.6 | 8.0 | 0.00 | 0.00 | 0.00 | 72 | 1014.5 |
| 20260905210454 | 26 | 59 | 1.6 | 6.4 | 0.00 | 0.00 | 0.00 | 72 | 1014.5 |
| 20260905205955 | 26 | 68 | 1.6 | 4.8 | 0.00 | 0.00 | 0.00 | 73 | 1014.5 |
| 20260905205455 | 26 | 34 | 0.0 | 4.8 | 0.00 | 0.00 | 0.00 | 74 | 1014.7 |
| 20260905204956 | 26 | 49 | 1.6 | 4.8 | 0.00 | 0.00 | 0.00 | 74 | 1014.7 |
| 20260905204456 | 26 | 49 | 1.6 | 8.0 | 0.00 | 0.00 | 0.00 | 74 | 1014.7 |
| 20260905203955 | 26 | 46 | 1.6 | 8.0 | 0.00 | 0.00 | 0.00 | 75 | 1014.7 |
| 20260905202955 | 25 | 37 | 0.0 | 3.2 | 0.00 | 0.00 | 0.00 | 77 | 1014.7 |
| 20260905202455 | 25 | 13 | 1.6 | 6.4 | 0.00 | 0.00 | 0.00 | 77 | 1014.7 |
| 20260905201956 | 25 | 45 | 1.6 | 9.7 | 0.00 | 0.00 | 0.00 | 77 | 1014.7 |
| 20260905201457 | 25 | 38 | 1.6 | 9.7 | 0.00 | 0.00 | 0.00 | 77 | 1014.7 |
| 20260905200955 | 25 | 39 | 1.6 | 9.7 | 0.00 | 0.00 | 0.00 | 76 | 1014.7 |
| 20260905200455 | 25 | 26 | 1.6 | 6.4 | 0.00 | 0.00 | 0.00 | 76 | 1014.7 |
| 20260905195956 | 25 | 342 | 1.6 | 8.0 | 0.00 | 0.00 | 0.00 | 76 | 1014.7 |
| 20260905195454 | 26 | 72 | 1.6 | 8.0 | 0.00 | 0.00 | 0.00 | 76 | 1014.7 |
| 20260905194954 | 25 | 34 | 1.6 | 8.0 | 0.00 | 0.00 | 0.00 | 77 | 1014.7 |
| 20260905194456 | 25 | 34 | 3.2 | 11.3 | 0.00 | 0.00 | 0.00 | 76 | 1014.7 |
| 20260905193954 | 25 | 23 | 1.6 | 11.3 | 0.00 | 0.00 | 0.00 | 76 | 1014.8 |
| 20260905193453 | 26 | 10 | 1.6 | 8.0 | 0.00 | 0.00 | 0.00 | 77 | 1014.8 |
| 20260905192955 | 26 | 59 | 1.6 | 8.0 | 0.00 | 0.00 | 0.00 | 76 | 1014.8 |
| 20260905191957 | 26 | 37 | 1.6 | 9.7 | 0.00 | 0.00 | 0.00 | 77 | 1015.0 |
| 20260905190957 | 25 | 37 | 1.6 | 9.7 | 0.00 | 0.00 | 0.00 | 77 | 1015.0 |
| 20260905190453 | 26 | 355 | 3.2 | 11.3 | 0.00 | 0.00 | 0.00 | 76 | 1015.0 |
| 20260905185453 | 26 | 42 | 1.6 | 9.7 | 0.00 | 0.00 | 0.00 | 77 | 1015.0 |
| 20260905184954 | 26 | 12 | 3.2 | 9.7 | 0.00 | 0.00 | 0.00 | 76 | 1015.0 |
| 20260905184455 | 26 | 24 | 3.2 | 9.7 | 0.00 | 0.00 | 0.00 | 76 | 1015.0 |
| 20260905183455 | 26 | 22 | 1.6 | 8.0 | 0.00 | 0.00 | 0.00 | 75 | 1015.2 |
| 20260905182957 | 26 | 50 | 1.6 | 8.0 | 0.00 | 0.00 | 0.00 | 75 | 1015.2 |
| 20260905182456 | 26 | 55 | 3.2 | 8.0 | 0.00 | 0.00 | 0.00 | 75 | 1015.2 |
| 20260905181954 | 26 | 70 | 3.2 | 9.7 | 0.00 | 0.00 | 0.00 | 75 | 1015.2 |
| 20260905180956 | 26 | 278 | 1.6 | 8.0 | 0.00 | 0.00 | 0.00 | 74 | 1015.1 |
| 20260905180453 | 26 | 32 | 3.2 | 8.0 | 0.00 | 0.00 | 0.00 | 74 | 1015.1 |
| 20260905175957 | 26 | 63 | 3.2 | 8.0 | 0.00 | 0.00 | 0.00 | 74 | 1015.1 |
| 20260905175456 | 27 | 67 | 3.2 | 8.0 | 0.00 | 0.00 | 0.00 | 75 | 1014.9 |
| 20260905174955 | 27 | 340 | 3.2 | 16.1 | 0.00 | 0.00 | 0.00 | 74 | 1014.9 |
| 20260905174455 | 27 | 21 | 3.2 | 16.1 | 0.00 | 0.00 | 0.00 | 74 | 1014.9 |
| 20260905173956 | 27 | 45 | 3.2 | 11.3 | 0.00 | 0.00 | 0.00 | 74 | 1014.8 |
| 20260905173454 | 27 | 38 | 3.2 | 11.3 | 0.00 | 0.00 | 0.00 | 75 | 1014.8 |
| 20260905172455 | 26 | 24 | 1.6 | 6.4 | 0.00 | 0.00 | 0.00 | 74 | 1014.8 |
| 20260905171956 | 27 | 67 | 1.6 | 6.4 | 0.00 | 0.00 | 0.00 | 75 | 1014.8 |
| 20260905170955 | 26 | 39 | 1.6 | 9.7 | 0.00 | 0.00 | 0.00 | 75 | 1014.9 |
| 20260905165957 | 26 | 31 | 1.6 | 8.0 | 0.00 | 0.00 | 0.00 | 76 | 1014.9 |
| 20260905165456 | 26 | 275 | 1.6 | 8.0 | 0.00 | 0.00 | 0.00 | 75 | 1015.1 |
| 20260905164954 | 26 | 40 | 1.6 | 9.7 | 0.00 | 0.00 | 0.00 | 76 | 1015.1 |
| 20260905164455 | 26 | 13 | 1.6 | 9.7 | 0.00 | 0.00 | 0.00 | 76 | 1015.1 |
| 20260905163954 | 26 | 28 | 1.6 | 12.9 | 0.00 | 0.00 | 0.00 | 75 | 1014.9 |
| 20260905163455 | 27 | 55 | 1.6 | 12.9 | 0.00 | 0.00 | 0.00 | 74 | 1014.9 |
| 20260905162955 | 27 | 15 | 1.6 | 6.4 | 0.00 | 0.00 | 0.00 | 75 | 1014.9 |
| 20260905161455 | 27 | 55 | 1.6 | 6.4 | 0.00 | 0.00 | 0.00 | 75 | 1014.9 |
| 20260905160955 | 26 | 65 | 1.6 | 9.7 | 0.00 | 0.00 | 0.00 | 75 | 1014.8 |
| 20260905160454 | 26 | 5 | 1.6 | 9.7 | 0.00 | 0.00 | 0.00 | 76 | 1014.8 |
| 20260905155957 | 26 | 69 | 1.6 | 8.0 | 0.00 | 0.00 | 0.00 | 76 | 1014.8 |
| 20260905155454 | 26 | 49 | 0.0 | 3.2 | 0.00 | 0.00 | 0.00 | 76 | 1014.7 |
| 20260905154954 | 26 | 62 | 0.0 | 3.2 | 0.00 | 0.00 | 0.00 | 76 | 1014.7 |
| 20260905154454 | 26 | 54 | 1.6 | 6.4 | 0.00 | 0.00 | 0.00 | 78 | 1014.7 |
| 20260905153954 | 26 | 53 | 1.6 | 6.4 | 0.00 | 0.00 | 0.00 | 78 | 1014.7 |
| 20260905153455 | 26 | 75 | 1.6 | 6.4 | 0.00 | 0.00 | 0.00 | 78 | 1014.7 |
| 20260905152956 | 26 | 49 | 1.6 | 6.4 | 0.00 | 0.00 | 0.00 | 78 | 1014.7 |
| 20260905152454 | 25 | 55 | 1.6 | 6.4 | 0.00 | 0.00 | 0.00 | 79 | 1014.6 |
| 20260905151954 | 25 | 48 | 0.0 | 4.8 | 0.00 | 0.00 | 0.00 | 79 | 1014.6 |
| 20260905150954 | 25 | 63 | 1.6 | 8.0 | 0.00 | 0.00 | 0.00 | 80 | 1014.4 |
| 20260905150453 | 25 | 58 | 1.6 | 8.0 | 0.00 | 0.00 | 0.00 | 79 | 1014.4 |
| 20260905145453 | 25 | 18 | 1.6 | 4.8 | 0.00 | 0.00 | 0.00 | 80 | 1014.2 |
| 20260905144956 | 25 | 49 | 1.6 | 6.4 | 0.00 | 0.00 | 0.00 | 80 | 1014.2 |
| 20260905144454 | 25 | 42 | 0.0 | 6.4 | 0.00 | 0.00 | 0.00 | 80 | 1014.2 |
| 20260905143954 | 25 | 57 | 0.0 | 4.8 | 0.00 | 0.00 | 0.00 | 80 | 1014.3 |
| 20260905142954 | 25 | 5 | 1.6 | 9.7 | 0.00 | 0.00 | 0.00 | 81 | 1014.3 |
| 20260905142455 | 25 | 34 | 1.6 | 9.7 | 0.00 | 0.00 | 0.00 | 81 | 1014.2 |
| 20260905141955 | 25 | 45 | 1.6 | 9.7 | 0.00 | 0.00 | 0.00 | 81 | 1014.2 |
| 20260905141454 | 25 | 51 | 1.6 | 4.8 | 0.00 | 0.00 | 0.00 | 83 | 1014.2 |
| 20260905140955 | 25 | 43 | 1.6 | 8.0 | 0.00 | 0.00 | 0.00 | 83 | 1014.0 |
| 20260905140455 | 24 | 46 | 1.6 | 8.0 | 0.00 | 0.00 | 0.00 | 83 | 1014.0 |
| 20260905135954 | 24 | 20 | 1.6 | 6.4 | 0.00 | 0.00 | 0.00 | 84 | 1014.0 |
| 20260905135455 | 24 | 49 | 1.6 | 8.0 | 0.00 | 0.00 | 0.00 | 84 | 1014.1 |
| 20260905134956 | 23 | 32 | 1.6 | 8.0 | 0.00 | 0.00 | 0.00 | 85 | 1014.1 |
| 20260905134455 | 23 | 34 | 1.6 | 8.0 | 0.00 | 0.00 | 0.00 | 85 | 1014.1 |
| 20260905133956 | 23 | 26 | 0.0 | 4.8 | 0.00 | 0.00 | 0.00 | 86 | 1014.3 |
| 20260905132954 | 23 | 19 | 1.6 | 12.9 | 0.00 | 0.00 | 0.00 | 85 | 1014.3 |
| 20260905132455 | 23 | 66 | 1.6 | 4.8 | 0.00 | 0.00 | 0.00 | 85 | 1014.4 |
| 20260905131955 | 23 | 59 | 1.6 | 6.4 | 0.00 | 0.00 | 0.00 | 84 | 1014.4 |
| 20260905131454 | 23 | 26 | 1.6 | 6.4 | 0.00 | 0.00 | 0.00 | 84 | 1014.4 |
| 20260905130955 | 23 | 28 | 1.6 | 6.4 | 0.00 | 0.00 | 0.00 | 84 | 1013.8 |